Location: Newark
(25.6108°S, 54.5803°W)
Time: 08:54:03
(UTC+00:00)

Tiros 1 - Pass Details

Date: 05 November 2020
Orbit: 630 x 664 km, 48.4° (Epoch: 29 November)

Event Time Altitude Azimuth Distance (km) Brightness Sun altitude
Rises 12:45:47 0° 4° (N) 2,920 10.6 52.4°
Reaches altitude 10° 12:50:08 10° 42° (NE) 2,033 10.3 53.4°
Maximum altitude 12:51:07 11° 55° (NE) 1,998 10.4 53.6°
Drops below altitude 10° 12:52:07 10° 67° (ENE) 2,043 10.5 53.8°
Sets 12:56:31 0° 105° (ESE) 2,975 11.0 54.8°
